Regional Weather Roundup
Issued by NWS

Home | Current Version | Previous Version | Graphics & Text | Print | Product List | Glossary On
Versions: 1 2 3 4 5 6 7 8 9 10 11 12 13 14 15 16 17 18 19 20 21 22 23 24 25 26 27 28 29 30 31 32 33 34 35 36 37 38 39 40 41 42 43 44
000
ASUS45 KBOU 230910
RWRCO

WEATHER ROUNDUP FOR COLORADO
NATIONAL WEATHER SERVICE PUEBLO CO
200 AM MST FRI FEB 23 2018

NOTE: "FAIR" INDICATES FEW OR NO CLOUDS BELOW 12000 FEET WITH NO
SIGNIFICANT WEATHER AND/OR OBSTRUCTIONS TO VISIBILITY.

COZ001>005-013-030-031-231000-
...NORTHWEST COLORADO...

CITY           SKY/WX    TMP DP  RH WIND       PRES   REMARKS
CRAIG          PTCLDY    17  13  84 E3        29.96S
HAYDEN         MOCLDY    18  15  88 SE13      29.96F WCI   5
MEEKER         CLOUDY    18  14  84 CALM      29.94F
RABBIT EARS PA NOT AVBL
STEAMBOAT SPGS CLOUDY    18  15  89 E5        29.94F WCI  11
WALDEN         CLOUDY    14  10  85 SE6       29.92F WCI   5
$$

COZ006>008-011-231000-
...WEST CENTRAL VALLEYS...

CITY           SKY/WX    TMP DP  RH WIND       PRES   REMARKS
GRAND JUNCTION MOCLDY    28  24  85 SE9       29.98F WCI  19
MONTROSE       MOCLDY    27  19  72 SW6       30.02F WCI  20
EAGLE          CLOUDY    21  18  88 CALM      29.99S FOG
RIFLE          LGT SNOW  26  25  96 E6        30.00S FOG     WCI  19
DELTA          NOT AVBL
NUCLA          FAIR      27  12  54 S5        30.01F WCI  21
$$

COZ017>023-064>068-231000-
...SOUTHWEST COLORADO...

CITY           SKY/WX    TMP DP  RH WIND       PRES   REMARKS
DURANGO        PTCLDY    17  13  84 NE6       30.04S WCI   9
CORTEZ         PTCLDY    21   7  54 S6        30.03F WCI  13
PAGOSA SPRINGS FAIR     N/A N/A N/A CALM      30.04S
TELLURIDE      CLOUDY    19   8  62 E8        29.95S WCI   8
WOLF CREEK PAS CLOUDY     3   3 100 SW25G40   29.92F WCI -20
$$

COZ009-010-012-014-032>034-037-058>063-231000-
...CENTRAL COLORADO...

CITY           SKY/WX    TMP DP  RH WIND       PRES   REMARKS
ASPEN          CLOUDY    16  11  80 CALM      29.91S
BUENA VISTA    CLOUDY    17   8  67 SE3       29.96S
COPPER MTN     CLOUDY     9   1  72 S14       29.82F WCI  -8
BERTHOUD PASS  FAIR       0 -11  60 SW14G21   29.81S WCI -19
COTTONWOOD PAS CLOUDY    18  12  79 CALM      29.91S
GUNNISON       PTCLDY    10   3  73 NE6       29.99R WCI   0
KREMMLING      LGT SNOW  21  18  86 CALM      29.96S
LEADVILLE      LGT SNOW   6   3  87 CALM      29.87F FOG
MONARCH PASS     N/A      3   0  85 SW32      29.93F WCI -22
SALIDA         MOCLDY    20  11  66 CALM      30.05F
SUNLIGHT       LGT SNOW   9   5  85 SW9       29.89F VSB 1   WCI  -5
WILKERSON PASS CLEAR      5   1  85 SW10G22   29.88S WCI -10
$$

COZ069>075-231000-
...SAN LUIS VALLEY/SANGRE DE CRISTO MOUNTAINS...

CITY           SKY/WX    TMP DP  RH WIND       PRES   REMARKS
ALAMOSA        CLEAR     21   8  57 S22       30.00F WCI   5
DEL NORTE      FAIR      13   9  83 E6        30.00S WCI   4
LA VETA PASS   CLOUDY    16   7  67 S25G45    30.04S WCI  -3
SAGUACHE       MOCLDY     9   3  78 NW7       30.01S WCI  -3
$$

COZ035-036-038>040-231000-
...NORTHERN COLORADO FRONT RANGE...

CITY           SKY/WX    TMP DP  RH WIND       PRES   REMARKS
DENVER INTL AP CLEAR     16  12  84 SW6       30.02S FOG     WCI   7
DMNS CITY PARK NOT AVBL
AURORA         PTCLDY    14  14  98 S8        30.01S WCI   3
FRONT RANGE AP FAIR      17  15  90 SE5       30.02F FOG     WCI  10
ERIE MUNI ARPT FAIR       7   4  88 CALM      30.09S
BOULDER MUN AP FAIR      18  14  86 CALM      30.02S
CENTENNIAL     PTCLDY    15  13  91 S7        30.00S WCI   5
BROOMFIELD     NOT AVBL
LOVELAND       PTCLDY    12  10  92 NE5       30.05S FOG     WCI   4
LONGMONT       NOT AVBL
$$

COZ041-046-047-076>085-087-088-231000-
...PIKES PEAK/PALMER DIVIDE AND SOUTHERN FOOTHILLS...

CITY           SKY/WX    TMP DP  RH WIND       PRES   REMARKS
COLO. SPRINGS  CLEAR     15  11  83 NW3       30.01F FOG
A. F. ACADEMY  PTCLDY    11   8  85 N8        29.99S WCI   0
SCHRIEVER AFB  NOT AVBL
CHEYENNE MTN   NOT AVBL
ELLICOTT         N/A    N/A N/A N/A CALM      29.99F
FALCON         FAIR      16  12  86 CALM      30.00S
FORT CARSON    CLEAR     18  13  83 NW3       30.01F
LIMON          CLEAR      5   3  91 CALM      30.04F
MONUMENT HILL  FOG        9   5  85 CALM      29.98F VSB 3/4
CANON CITY     CLEAR     25  19  80 MISG      30.03S
WALSENBURG     FAIR      32  10  40 W9        30.01F WCI  24
TRINIDAD       CLEAR     19   6  57 NW7       30.02F WCI  10
$$

COZ042>045-048>051-090-091-231000-
...NORTHEAST COLORADO...

CITY           SKY/WX    TMP DP  RH WIND       PRES   REMARKS
GREELEY ARPT   PTCLDY     9   6  88 N8        30.06F WCI  -3
AKRON          CLEAR     17  17 100 S6        30.05F WCI   9
BURLINGTON     FOG       21  19  92 SW6       30.10S VSB 1/2 WCI  13
WRAY           FAIR      19  18  93 W5        30.11F WCI  13
YUMA           NOT AVBL
STERLING       FAIR      18  16  93 S3        30.06F
HOLYOKE        FAIR      25  21  86 W5        30.10F WCI  19
FORT MORGAN    FAIR      16  14  91 CALM      30.07S
$$

COZ086-089-092>099-231000-
...SOUTHEAST COLORADO...

CITY           SKY/WX    TMP DP  RH WIND       PRES   REMARKS
PUEBLO         CLEAR     17  14  88 CALM      30.06S FOG
LA JUNTA       CLEAR     19  16  88 NE6       30.08R FOG     WCI  11
LAMAR          CLOUDY    23  21  92 NE8       30.10R FOG     WCI  14
SPRINGFIELD      N/A     19   7  59 W8        30.05F WCI   9
$$





USA.gov is the U.S. government's official web portal to all federal, state and local government web resources and services.